| time (UTC) | temp F | wind direction | speed MPH | gust MPH | rain 1hr in | rain 24hr in | rain mn in | humidity % | barometer mb |
| 20260901044031 | 50 | 0 | 0.0 | 1.0 | 0.00 | 0.00 | 0.00 | 96 | 1008.8 |
| 20260901043532 | 50 | 0 | 0.0 | 2.0 | 0.00 | 0.00 | 0.00 | 96 | 1008.7 |
| 20260901043052 | 50 | 0 | 0.0 | 2.0 | 0.00 | 0.00 | 0.00 | 96 | 1008.6 |
| 20260901042532 | 50 | 0 | 0.0 | 3.0 | 0.00 | 0.00 | 0.00 | 96 | 1008.7 |
| 20260901042037 | 50 | 16 | 1.0 | 5.0 | 0.00 | 0.00 | 0.00 | 96 | 1008.6 |
| 20260901041613 | 50 | 79 | 1.0 | 5.0 | 0.00 | 0.00 | 0.00 | 96 | 1008.6 |
| 20260901041031 | 50 | 348 | 3.0 | 5.0 | 0.00 | 0.00 | 0.00 | 96 | 1008.6 |
| 20260901040535 | 49 | 17 | 0.0 | 3.0 | 0.00 | 0.00 | 0.00 | 96 | 1008.6 |
| 20260901040136 | 49 | 0 | 0.0 | 0.0 | 0.00 | 0.00 | 0.00 | 96 | 1008.6 |
| 20260901035536 | 49 | 0 | 0.0 | 0.0 | 0.00 | 0.00 | 0.00 | 96 | 1008.7 |
| 20260901035032 | 49 | 0 | 0.0 | 0.0 | 0.00 | 0.00 | 0.00 | 96 | 1008.7 |
| 20260901034550 | 49 | 0 | 0.0 | 0.0 | 0.00 | 0.00 | 0.00 | 96 | 1008.6 |
| 20260901034030 | 49 | 0 | 0.0 | 0.0 | 0.00 | 0.00 | 0.00 | 96 | 1008.7 |
| 20260901033533 | 48 | 0 | 0.0 | 0.0 | 0.00 | 0.00 | 0.00 | 96 | 1008.7 |
| 20260901033057 | 48 | 0 | 0.0 | 0.0 | 0.00 | 0.00 | 0.00 | 96 | 1008.5 |
| 20260901032531 | 48 | 0 | 0.0 | 0.0 | 0.00 | 0.00 | 0.00 | 96 | 1008.5 |
| 20260901032031 | 48 | 0 | 0.0 | 0.0 | 0.00 | 0.00 | 0.00 | 96 | 1008.6 |
| 20260901031551 | 48 | 0 | 0.0 | 0.0 | 0.00 | 0.00 | 0.00 | 96 | 1008.6 |
| 20260901031032 | 48 | 0 | 0.0 | 0.0 | 0.00 | 0.00 | 0.00 | 96 | 1008.5 |
| 20260901030533 | 47 | 0 | 0.0 | 0.0 | 0.00 | 0.00 | 0.00 | 96 | 1008.4 |
| 20260901030049 | 47 | 0 | 0.0 | 0.0 | 0.00 | 0.00 | 0.00 | 96 | 1008.4 |
| 20260901025531 | 47 | 0 | 0.0 | 0.0 | 0.00 | 0.00 | 0.00 | 96 | 1008.3 |
| 20260901025033 | 47 | 0 | 0.0 | 0.0 | 0.00 | 0.00 | 0.00 | 96 | 1008.3 |
| 20260901024549 | 47 | 0 | 0.0 | 0.0 | 0.00 | 0.00 | 0.00 | 96 | 1008.2 |
| 20260901024033 | 47 | 0 | 0.0 | 0.0 | 0.00 | 0.00 | 0.00 | 96 | 1008.2 |
| 20260901023530 | 47 | 0 | 0.0 | 0.0 | 0.00 | 0.00 | 0.00 | 96 | 1008.2 |
| 20260901023057 | 47 | 0 | 0.0 | 0.0 | 0.00 | 0.00 | 0.00 | 96 | 1008.1 |
| 20260901022531 | 47 | 0 | 0.0 | 0.0 | 0.00 | 0.00 | 0.00 | 96 | 1008.1 |
| 20260901022031 | 47 | 0 | 0.0 | 0.0 | 0.00 | 0.00 | 0.00 | 96 | 1008.1 |
| 20260901021551 | 47 | 0 | 0.0 | 0.0 | 0.00 | 0.00 | 0.00 | 96 | 1008.0 |
| 20260901021031 | 47 | 0 | 0.0 | 0.0 | 0.00 | 0.00 | 0.00 | 96 | 1007.9 |
| 20260901020532 | 47 | 0 | 0.0 | 0.0 | 0.00 | 0.00 | 0.00 | 96 | 1008.0 |
| 20260901020048 | 47 | 0 | 0.0 | 0.0 | 0.00 | 0.00 | 0.00 | 96 | 1008.0 |
| 20260901015530 | 47 | 0 | 0.0 | 0.0 | 0.00 | 0.00 | 0.00 | 96 | 1007.9 |
| 20260901015031 | 47 | 0 | 0.0 | 0.0 | 0.00 | 0.00 | 0.00 | 95 | 1007.8 |
| 20260901014555 | 47 | 0 | 0.0 | 0.0 | 0.00 | 0.00 | 0.00 | 95 | 1007.7 |
| 20260901014031 | 47 | 0 | 0.0 | 0.0 | 0.00 | 0.00 | 0.00 | 95 | 1007.8 |
| 20260901013530 | 47 | 0 | 0.0 | 0.0 | 0.00 | 0.00 | 0.00 | 95 | 1007.8 |
| 20260901013057 | 47 | 0 | 0.0 | 0.0 | 0.00 | 0.00 | 0.00 | 95 | 1007.8 |
| 20260901012531 | 47 | 0 | 0.0 | 0.0 | 0.00 | 0.00 | 0.00 | 95 | 1007.9 |
| 20260901012031 | 48 | 0 | 0.0 | 0.0 | 0.00 | 0.00 | 0.00 | 95 | 1007.7 |
| 20260901011547 | 48 | 0 | 0.0 | 0.0 | 0.00 | 0.00 | 0.00 | 95 | 1007.8 |
| 20260901011030 | 48 | 0 | 0.0 | 0.0 | 0.00 | 0.00 | 0.00 | 95 | 1007.7 |
| 20260901010534 | 48 | 0 | 0.0 | 0.0 | 0.00 | 0.00 | 0.00 | 95 | 1007.7 |
| 20260901010108 | 48 | 0 | 0.0 | 0.0 | 0.00 | 0.00 | 0.00 | 95 | 1007.7 |
| 20260901005530 | 48 | 0 | 0.0 | 0.0 | 0.00 | 0.00 | 0.00 | 95 | 1007.7 |
| 20260901005032 | 48 | 0 | 0.0 | 0.0 | 0.00 | 0.00 | 0.00 | 95 | 1007.7 |
| 20260901004550 | 48 | 0 | 0.0 | 0.0 | 0.00 | 0.00 | 0.00 | 95 | 1007.7 |
| 20260901004031 | 48 | 0 | 0.0 | 0.0 | 0.00 | 0.00 | 0.00 | 95 | 1007.7 |
| 20260901003531 | 48 | 0 | 0.0 | 0.0 | 0.00 | 0.00 | 0.00 | 95 | 1007.5 |
| 20260901003051 | 48 | 0 | 0.0 | 0.0 | 0.00 | 0.00 | 0.00 | 95 | 1007.7 |
| 20260901002531 | 49 | 0 | 0.0 | 0.0 | 0.00 | 0.00 | 0.00 | 95 | 1007.7 |
| 20260901002031 | 49 | 0 | 0.0 | 0.0 | 0.00 | 0.00 | 0.00 | 95 | 1007.6 |
| 20260901001547 | 49 | 0 | 0.0 | 0.0 | 0.00 | 0.00 | 0.00 | 95 | 1007.6 |
| 20260901001031 | 50 | 0 | 0.0 | 0.0 | 0.00 | 0.00 | 0.00 | 95 | 1007.7 |
| 20260901000534 | 50 | 0 | 0.0 | 0.0 | 0.00 | 0.00 | 0.00 | 95 | 1007.6 |
| 20260901000046 | 50 | 0 | 0.0 | 0.0 | 0.00 | 0.00 | 0.00 | 95 | 1007.7 |
| 20260831235534 | 50 | 0 | 0.0 | 0.0 | 0.00 | 0.00 | 0.00 | 95 | 1007.7 |
| 20260831235034 | 49 | 0 | 0.0 | 0.0 | 0.00 | 0.00 | 0.00 | 95 | 1007.7 |
| 20260831234553 | 49 | 0 | 0.0 | 0.0 | 0.00 | 0.00 | 0.00 | 95 | 1007.7 |
| 20260831234034 | 49 | 0 | 0.0 | 0.0 | 0.00 | 0.00 | 0.00 | 95 | 1007.7 |
| 20260831233539 | 49 | 0 | 0.0 | 0.0 | 0.00 | 0.00 | 0.00 | 95 | 1007.6 |
| 20260831233048 | 49 | 0 | 0.0 | 0.0 | 0.00 | 0.00 | 0.00 | 94 | 1007.7 |
| 20260831232534 | 50 | 0 | 0.0 | 0.0 | 0.00 | 0.00 | 0.00 | 95 | 1007.7 |
| 20260831232034 | 50 | 0 | 0.0 | 0.0 | 0.00 | 0.00 | 0.00 | 95 | 1007.6 |
| 20260831231545 | 50 | 0 | 0.0 | 0.0 | 0.00 | 0.00 | 0.00 | 95 | 1007.7 |
| 20260831231038 | 50 | 0 | 0.0 | 0.0 | 0.00 | 0.00 | 0.00 | 95 | 1007.8 |
| 20260831230534 | 50 | 0 | 0.0 | 0.0 | 0.00 | 0.00 | 0.00 | 94 | 1007.7 |
| 20260831230109 | 50 | 0 | 0.0 | 0.0 | 0.00 | 0.00 | 0.00 | 94 | 1007.8 |
| 20260831225535 | 51 | 0 | 0.0 | 0.0 | 0.00 | 0.00 | 0.00 | 94 | 1007.8 |
| 20260831225035 | 51 | 0 | 0.0 | 0.0 | 0.00 | 0.00 | 0.00 | 94 | 1007.7 |
| 20260831224547 | 51 | 0 | 0.0 | 0.0 | 0.00 | 0.00 | 0.00 | 94 | 1007.8 |
| 20260831224035 | 51 | 0 | 0.0 | 0.0 | 0.00 | 0.00 | 0.00 | 94 | 1007.7 |
| 20260831223534 | 51 | 0 | 0.0 | 0.0 | 0.00 | 0.00 | 0.00 | 94 | 1007.8 |
| 20260831223052 | 51 | 0 | 0.0 | 0.0 | 0.00 | 0.00 | 0.00 | 94 | 1007.7 |
| 20260831222535 | 51 | 0 | 0.0 | 0.0 | 0.00 | 0.00 | 0.00 | 94 | 1007.7 |
| 20260831222035 | 51 | 0 | 0.0 | 0.0 | 0.00 | 0.00 | 0.00 | 94 | 1007.8 |
| 20260831221557 | 51 | 0 | 0.0 | 0.0 | 0.00 | 0.00 | 0.00 | 94 | 1007.7 |
| 20260831221034 | 51 | 0 | 0.0 | 0.0 | 0.00 | 0.00 | 0.00 | 94 | 1007.7 |
| 20260831220535 | 52 | 0 | 0.0 | 0.0 | 0.00 | 0.00 | 0.00 | 93 | 1007.7 |
| 20260831220051 | 52 | 0 | 0.0 | 0.0 | 0.00 | 0.00 | 0.00 | 93 | 1007.7 |
| 20260831215537 | 52 | 0 | 0.0 | 0.0 | 0.00 | 0.00 | 0.00 | 93 | 1007.7 |
| 20260831215035 | 53 | 0 | 0.0 | 0.0 | 0.00 | 0.00 | 0.00 | 93 | 1007.6 |
| 20260831214607 | 53 | 0 | 0.0 | 0.0 | 0.00 | 0.00 | 0.00 | 93 | 1007.6 |
| 20260831214034 | 53 | 0 | 0.0 | 0.0 | 0.00 | 0.00 | 0.00 | 93 | 1007.5 |
| 20260831213534 | 53 | 0 | 0.0 | 0.0 | 0.00 | 0.00 | 0.00 | 93 | 1007.6 |
| 20260831213052 | 53 | 0 | 0.0 | 0.0 | 0.00 | 0.00 | 0.00 | 93 | 1007.4 |
| 20260831212532 | 53 | 0 | 0.0 | 0.0 | 0.00 | 0.00 | 0.00 | 93 | 1007.5 |
| 20260831212034 | 53 | 0 | 0.0 | 0.0 | 0.00 | 0.00 | 0.00 | 93 | 1007.4 |
| 20260831211549 | 53 | 0 | 0.0 | 0.0 | 0.00 | 0.00 | 0.00 | 92 | 1007.3 |
| 20260831211034 | 53 | 0 | 0.0 | 0.0 | 0.00 | 0.00 | 0.00 | 92 | 1007.4 |
| 20260831210530 | 53 | 0 | 0.0 | 0.0 | 0.00 | 0.00 | 0.00 | 92 | 1007.3 |
| 20260831210056 | 53 | 0 | 0.0 | 0.0 | 0.00 | 0.00 | 0.00 | 92 | 1007.3 |
| 20260831205623 | 54 | 0 | 0.0 | 0.0 | 0.00 | 0.00 | 0.00 | 92 | 1007.3 |
| 20260831205034 | 54 | 0 | 0.0 | 0.0 | 0.00 | 0.00 | 0.00 | 92 | 1007.3 |
| 20260831204558 | 54 | 0 | 0.0 | 0.0 | 0.00 | 0.00 | 0.00 | 92 | 1007.1 |
| 20260831204034 | 54 | 0 | 0.0 | 0.0 | 0.00 | 0.00 | 0.00 | 91 | 1007.2 |
| 20260831203536 | 54 | 0 | 0.0 | 0.0 | 0.00 | 0.00 | 0.00 | 91 | 1007.1 |
| 20260831203049 | 54 | 0 | 0.0 | 0.0 | 0.00 | 0.00 | 0.00 | 91 | 1007.1 |
| 20260831202535 | 55 | 0 | 0.0 | 0.0 | 0.00 | 0.00 | 0.00 | 91 | 1007.1 |
| 20260831202034 | 55 | 0 | 0.0 | 0.0 | 0.00 | 0.00 | 0.00 | 91 | 1007.1 |
| 20260831201557 | 55 | 0 | 0.0 | 0.0 | 0.00 | 0.00 | 0.00 | 91 | 1007.2 |
| 20260831201034 | 55 | 0 | 0.0 | 0.0 | 0.00 | 0.00 | 0.00 | 91 | 1007.2 |
| 20260831200535 | 55 | 0 | 0.0 | 0.0 | 0.00 | 0.00 | 0.00 | 91 | 1007.1 |
| 20260831200105 | 55 | 0 | 0.0 | 0.0 | 0.00 | 0.00 | 0.00 | 90 | 1007.1 |
| 20260831195534 | 55 | 0 | 0.0 | 0.0 | 0.00 | 0.00 | 0.00 | 90 | 1007.2 |
| 20260831195033 | 56 | 0 | 0.0 | 1.0 | 0.00 | 0.00 | 0.00 | 90 | 1007.2 |
| 20260831194627 | 56 | 0 | 0.0 | 1.0 | 0.00 | 0.00 | 0.00 | 90 | 1007.0 |
| 20260831194034 | 56 | 0 | 0.0 | 4.0 | 0.00 | 0.00 | 0.00 | 90 | 1007.1 |
| 20260831193535 | 56 | 0 | 0.0 | 4.0 | 0.00 | 0.00 | 0.00 | 90 | 1007.1 |
| 20260831193048 | 56 | 0 | 0.0 | 0.0 | 0.00 | 0.00 | 0.00 | 89 | 1007.0 |
| 20260831192534 | 56 | 0 | 0.0 | 0.0 | 0.00 | 0.00 | 0.00 | 89 | 1007.1 |
| 20260831192034 | 56 | 0 | 0.0 | 0.0 | 0.00 | 0.00 | 0.00 | 89 | 1007.0 |
| 20260831191556 | 57 | 0 | 0.0 | 0.0 | 0.00 | 0.00 | 0.00 | 88 | 1006.9 |
| 20260831191040 | 57 | 0 | 0.0 | 2.0 | 0.00 | 0.00 | 0.00 | 88 | 1006.8 |
| 20260831190535 | 57 | 0 | 0.0 | 2.0 | 0.00 | 0.00 | 0.00 | 88 | 1006.9 |
| 20260831185534 | 57 | 103 | 0.0 | 1.0 | 0.00 | 0.00 | 0.00 | 87 | 1006.7 |
| 20260831185034 | 58 | 0 | 0.0 | 1.0 | 0.00 | 0.00 | 0.00 | 87 | 1006.7 |
| 20260831184550 | 58 | 0 | 0.0 | 2.0 | 0.00 | 0.00 | 0.00 | 87 | 1006.7 |
| 20260831184030 | 58 | 0 | 0.0 | 2.0 | 0.00 | 0.00 | 0.00 | 87 | 1006.7 |
| 20260831183536 | 58 | 129 | 1.0 | 3.0 | 0.00 | 0.00 | 0.00 | 86 | 1006.7 |
| 20260831183106 | 58 | 0 | 0.0 | 3.0 | 0.00 | 0.00 | 0.00 | 86 | 1006.6 |
| 20260831182535 | 59 | 157 | 0.0 | 2.0 | 0.00 | 0.00 | 0.00 | 85 | 1006.5 |
| 20260831182035 | 59 | 149 | 0.0 | 2.0 | 0.00 | 0.00 | 0.00 | 85 | 1006.5 |
| 20260831181557 | 59 | 195 | 0.0 | 3.0 | 0.00 | 0.00 | 0.00 | 85 | 1006.4 |
| 20260831181034 | 59 | 186 | 0.0 | 3.0 | 0.00 | 0.00 | 0.00 | 84 | 1006.4 |
| 20260831180534 | 60 | 136 | 1.0 | 3.0 | 0.00 | 0.00 | 0.00 | 83 | 1006.3 |
| 20260831180111 | 60 | 155 | 1.0 | 4.0 | 0.00 | 0.00 | 0.00 | 83 | 1006.4 |
| 20260831175531 | 60 | 105 | 1.0 | 7.0 | 0.00 | 0.00 | 0.00 | 83 | 1006.3 |
| 20260831175034 | 60 | 172 | 1.0 | 8.0 | 0.00 | 0.00 | 0.00 | 82 | 1006.3 |
| 20260831174552 | 61 | 195 | 2.0 | 8.0 | 0.00 | 0.00 | 0.00 | 81 | 1006.3 |
| 20260831174034 | 61 | 178 | 3.0 | 8.0 | 0.00 | 0.00 | 0.00 | 80 | 1006.3 |
| 20260831173538 | 62 | 164 | 1.0 | 7.0 | 0.00 | 0.00 | 0.00 | 79 | 1006.3 |
| 20260831173046 | 62 | 150 | 3.0 | 7.0 | 0.00 | 0.00 | 0.00 | 78 | 1006.3 |
| 20260831172534 | 62 | 157 | 3.0 | 7.0 | 0.00 | 0.00 | 0.00 | 77 | 1006.1 |
| 20260831172034 | 63 | 215 | 2.0 | 7.0 | 0.00 | 0.00 | 0.00 | 77 | 1006.2 |
| 20260831171547 | 63 | 130 | 2.0 | 8.0 | 0.00 | 0.00 | 0.00 | 76 | 1006.2 |
| 20260831171032 | 64 | 153 | 2.0 | 8.0 | 0.00 | 0.00 | 0.00 | 74 | 1006.1 |
| 20260831170532 | 64 | 248 | 2.0 | 5.0 | 0.00 | 0.00 | 0.00 | 74 | 1006.1 |
| 20260831170052 | 64 | 198 | 2.0 | 8.0 | 0.00 | 0.00 | 0.00 | 73 | 1006.2 |
| 20260831165534 | 64 | 253 | 4.0 | 8.0 | 0.00 | 0.00 | 0.00 | 72 | 1006.1 |
| 20260831165032 | 64 | 203 | 2.0 | 8.0 | 0.00 | 0.00 | 0.00 | 72 | 1006.1 |
| 20260831164550 | 65 | 126 | 2.0 | 8.0 | 0.00 | 0.00 | 0.00 | 70 | 1006.0 |
| 20260831164035 | 65 | 143 | 3.0 | 8.0 | 0.00 | 0.00 | 0.00 | 69 | 1005.9 |
| 20260831163532 | 65 | 125 | 1.0 | 6.0 | 0.00 | 0.00 | 0.00 | 69 | 1006.0 |
| 20260831163049 | 65 | 95 | 2.0 | 7.0 | 0.00 | 0.00 | 0.00 | 68 | 1006.0 |
| 20260831162535 | 65 | 168 | 2.0 | 8.0 | 0.00 | 0.00 | 0.00 | 68 | 1005.9 |
| 20260831162033 | 66 | 178 | 5.0 | 8.0 | 0.00 | 0.00 | 0.00 | 68 | 1005.9 |
| 20260831161554 | 66 | 221 | 5.0 | 8.0 | 0.00 | 0.00 | 0.00 | 67 | 1005.9 |
| 20260831161031 | 66 | 194 | 4.0 | 7.0 | 0.00 | 0.00 | 0.00 | 67 | 1005.8 |
| 20260831160535 | 66 | 231 | 5.0 | 8.0 | 0.00 | 0.00 | 0.00 | 66 | 1005.8 |
| 20260831160050 | 66 | 162 | 5.0 | 9.0 | 0.00 | 0.00 | 0.00 | 65 | 1005.9 |
| 20260831155532 | 67 | 219 | 5.0 | 9.0 | 0.00 | 0.00 | 0.00 | 65 | 1005.8 |
| 20260831155035 | 67 | 220 | 3.0 | 8.0 | 0.00 | 0.00 | 0.00 | 66 | 1005.7 |
| 20260831154616 | 67 | 181 | 4.0 | 8.0 | 0.00 | 0.00 | 0.00 | 66 | 1005.8 |
| 20260831154034 | 67 | 149 | 3.0 | 10.0 | 0.00 | 0.00 | 0.00 | 65 | 1005.7 |
| 20260831153535 | 67 | 204 | 4.0 | 11.0 | 0.00 | 0.00 | 0.00 | 65 | 1005.7 |
| 20260831153058 | 67 | 147 | 5.0 | 11.0 | 0.00 | 0.00 | 0.00 | 66 | 1005.8 |
| 20260831152536 | 67 | 231 | 7.0 | 11.0 | 0.00 | 0.00 | 0.00 | 65 | 1005.8 |
| 20260831152032 | 68 | 72 | 3.0 | 11.0 | 0.00 | 0.00 | 0.00 | 65 | 1005.8 |
| 20260831151552 | 68 | 205 | 5.0 | 11.0 | 0.00 | 0.00 | 0.00 | 65 | 1005.7 |
| 20260831151033 | 68 | 223 | 4.0 | 11.0 | 0.00 | 0.00 | 0.00 | 63 | 1005.7 |
| 20260831150533 | 68 | 175 | 2.0 | 11.0 | 0.00 | 0.00 | 0.00 | 63 | 1005.5 |
| 20260831150058 | 69 | 180 | 4.0 | 10.0 | 0.00 | 0.00 | 0.00 | 61 | 1005.6 |
| 20260831145531 | 69 | 214 | 6.0 | 10.0 | 0.00 | 0.00 | 0.00 | 63 | 1005.5 |
| 20260831145031 | 69 | 167 | 6.0 | 10.0 | 0.00 | 0.00 | 0.00 | 62 | 1005.5 |
| 20260831144553 | 69 | 200 | 6.0 | 10.0 | 0.00 | 0.00 | 0.00 | 65 | 1005.5 |
| 20260831144032 | 68 | 207 | 5.0 | 11.0 | 0.00 | 0.00 | 0.00 | 65 | 1005.4 |
| 20260831143532 | 68 | 189 | 4.0 | 11.0 | 0.00 | 0.00 | 0.00 | 65 | 1005.5 |
| 20260831143049 | 69 | 206 | 5.0 | 11.0 | 0.00 | 0.00 | 0.00 | 64 | 1005.5 |
| 20260831142531 | 69 | 164 | 4.0 | 10.0 | 0.00 | 0.00 | 0.00 | 64 | 1005.4 |
| 20260831142031 | 69 | 217 | 6.0 | 10.0 | 0.00 | 0.00 | 0.00 | 64 | 1005.4 |
| 20260831141547 | 69 | 68 | 4.0 | 10.0 | 0.00 | 0.00 | 0.00 | 64 | 1005.4 |
| 20260831141033 | 69 | 169 | 5.0 | 9.0 | 0.00 | 0.00 | 0.00 | 64 | 1005.4 |
| 20260831140531 | 69 | 148 | 4.0 | 9.0 | 0.00 | 0.00 | 0.00 | 64 | 1005.4 |
| 20260831140053 | 69 | 110 | 3.0 | 9.0 | 0.00 | 0.00 | 0.00 | 66 | 1005.4 |
| 20260831135532 | 68 | 118 | 4.0 | 9.0 | 0.00 | 0.00 | 0.00 | 67 | 1005.4 |
| 20260831135032 | 68 | 121 | 3.0 | 10.0 | 0.00 | 0.00 | 0.00 | 68 | 1005.4 |
| 20260831134551 | 68 | 134 | 4.0 | 11.0 | 0.00 | 0.00 | 0.00 | 69 | 1005.4 |
| 20260831134032 | 68 | 94 | 5.0 | 13.0 | 0.00 | 0.00 | 0.00 | 67 | 1005.4 |
| 20260831133531 | 68 | 99 | 6.0 | 13.0 | 0.00 | 0.00 | 0.00 | 69 | 1005.4 |
| 20260831133049 | 68 | 147 | 5.0 | 11.0 | 0.00 | 0.00 | 0.00 | 68 | 1005.3 |
| 20260831132532 | 68 | 136 | 3.0 | 10.0 | 0.00 | 0.00 | 0.00 | 68 | 1005.3 |
| 20260831132032 | 68 | 119 | 4.0 | 10.0 | 0.00 | 0.00 | 0.00 | 66 | 1005.1 |
| 20260831131546 | 69 | 106 | 4.0 | 10.0 | 0.00 | 0.00 | 0.00 | 64 | 1005.1 |
| 20260831131035 | 70 | 156 | 3.0 | 8.0 | 0.00 | 0.00 | 0.00 | 65 | 1005.2 |
| 20260831130532 | 70 | 229 | 3.0 | 11.0 | 0.00 | 0.00 | 0.00 | 67 | 1005.0 |
| 20260831130101 | 69 | 92 | 5.0 | 11.0 | 0.00 | 0.00 | 0.00 | 67 | 1004.9 |
| 20260831125533 | 69 | 160 | 4.0 | 9.0 | 0.00 | 0.00 | 0.00 | 67 | 1005.1 |
| 20260831125032 | 69 | 103 | 5.0 | 10.0 | 0.00 | 0.00 | 0.00 | 68 | 1005.0 |
| 20260831124551 | 69 | 122 | 6.0 | 10.0 | 0.00 | 0.00 | 0.00 | 67 | 1005.1 |
| 20260831124034 | 69 | 110 | 3.0 | 10.0 | 0.00 | 0.00 | 0.00 | 67 | 1005.0 |
| 20260831123534 | 69 | 135 | 3.0 | 10.0 | 0.00 | 0.00 | 0.00 | 68 | 1005.0 |
| 20260831123047 | 69 | 64 | 3.0 | 7.0 | 0.00 | 0.00 | 0.00 | 69 | 1005.0 |
| 20260831122532 | 68 | 141 | 2.0 | 7.0 | 0.00 | 0.00 | 0.00 | 68 | 1005.1 |
| 20260831122034 | 68 | 98 | 4.0 | 7.0 | 0.00 | 0.00 | 0.00 | 69 | 1005.0 |
| 20260831121551 | 68 | 145 | 3.0 | 7.0 | 0.00 | 0.00 | 0.00 | 68 | 1005.0 |
| 20260831121034 | 68 | 110 | 2.0 | 7.0 | 0.00 | 0.00 | 0.00 | 69 | 1005.0 |
| 20260831120533 | 68 | 161 | 4.0 | 7.0 | 0.00 | 0.00 | 0.00 | 67 | 1005.0 |
| 20260831120051 | 68 | 110 | 2.0 | 5.0 | 0.00 | 0.00 | 0.00 | 67 | 1005.0 |
| 20260831115531 | 68 | 0 | 1.0 | 4.0 | 0.00 | 0.00 | 0.00 | 65 | 1004.9 |
| 20260831115031 | 68 | 196 | 1.0 | 3.0 | 0.00 | 0.00 | 0.00 | 67 | 1004.9 |
| 20260831114548 | 68 | 165 | 1.0 | 5.0 | 0.00 | 0.00 | 0.00 | 65 | 1005.0 |
| 20260831114034 | 69 | 162 | 2.0 | 7.0 | 0.00 | 0.00 | 0.00 | 65 | 1004.9 |
| 20260831113534 | 69 | 92 | 3.0 | 8.0 | 0.00 | 0.00 | 0.00 | 66 | 1004.9 |
| 20260831113054 | 68 | 127 | 4.0 | 8.0 | 0.00 | 0.00 | 0.00 | 68 | 1004.9 |
| 20260831112532 | 68 | 82 | 5.0 | 8.0 | 0.00 | 0.00 | 0.00 | 67 | 1004.8 |
| 20260831112039 | 69 | 123 | 1.0 | 6.0 | 0.00 | 0.00 | 0.00 | 63 | 1004.8 |
| 20260831111546 | 70 | 138 | 2.0 | 6.0 | 0.00 | 0.00 | 0.00 | 61 | 1004.7 |
| 20260831111031 | 70 | 107 | 3.0 | 6.0 | 0.00 | 0.00 | 0.00 | 60 | 1004.8 |
| 20260831110531 | 70 | 0 | 2.0 | 5.0 | 0.00 | 0.00 | 0.00 | 62 | 1004.7 |
| 20260831110051 | 69 | 329 | 2.0 | 5.0 | 0.00 | 0.00 | 0.00 | 62 | 1004.7 |
| 20260831105534 | 69 | 179 | 2.0 | 4.0 | 0.00 | 0.00 | 0.00 | 60 | 1004.7 |
| 20260831105032 | 69 | 219 | 1.0 | 4.0 | 0.00 | 0.00 | 0.00 | 63 | 1004.8 |
| 20260831104601 | 68 | 0 | 1.0 | 8.0 | 0.00 | 0.00 | 0.00 | 63 | 1004.9 |
| 20260831104032 | 68 | 48 | 2.0 | 8.0 | 0.00 | 0.00 | 0.00 | 60 | 1004.8 |
| 20260831103531 | 69 | 274 | 3.0 | 6.0 | 0.00 | 0.00 | 0.00 | 62 | 1004.8 |
| 20260831103048 | 69 | 209 | 3.0 | 7.0 | 0.00 | 0.00 | 0.00 | 62 | 1004.9 |
| 20260831102533 | 69 | 151 | 3.0 | 7.0 | 0.00 | 0.00 | 0.00 | 61 | 1004.8 |
| 20260831102036 | 69 | 207 | 2.0 | 7.0 | 0.00 | 0.00 | 0.00 | 60 | 1004.8 |
| 20260831101553 | 69 | 219 | 3.0 | 7.0 | 0.00 | 0.00 | 0.00 | 62 | 1004.9 |
| 20260831101032 | 70 | 143 | 1.0 | 5.0 | 0.00 | 0.00 | 0.00 | 60 | 1004.8 |
| 20260831100532 | 69 | 102 | 2.0 | 5.0 | 0.00 | 0.00 | 0.00 | 62 | 1004.9 |
| 20260831095534 | 69 | 237 | 2.0 | 5.0 | 0.00 | 0.00 | 0.00 | 61 | 1004.8 |
| 20260831095032 | 69 | 148 | 1.0 | 6.0 | 0.00 | 0.00 | 0.00 | 61 | 1004.8 |
| 20260831094547 | 69 | 142 | 3.0 | 6.0 | 0.00 | 0.00 | 0.00 | 62 | 1004.8 |
| 20260831094034 | 68 | 153 | 2.0 | 4.0 | 0.00 | 0.00 | 0.00 | 64 | 1004.8 |
| 20260831093532 | 68 | 194 | 1.0 | 3.0 | 0.00 | 0.00 | 0.00 | 64 | 1004.8 |
| 20260831093050 | 68 | 150 | 0.0 | 3.0 | 0.00 | 0.00 | 0.00 | 64 | 1004.8 |
| 20260831092534 | 67 | 309 | 1.0 | 3.0 | 0.00 | 0.00 | 0.00 | 67 | 1004.8 |
| 20260831092031 | 67 | 215 | 1.0 | 5.0 | 0.00 | 0.00 | 0.00 | 68 | 1004.8 |
| 20260831091545 | 66 | 303 | 2.0 | 5.0 | 0.00 | 0.00 | 0.00 | 70 | 1004.7 |
| 20260831091031 | 66 | 250 | 3.0 | 5.0 | 0.00 | 0.00 | 0.00 | 68 | 1004.7 |
| 20260831090534 | 66 | 161 | 1.0 | 4.0 | 0.00 | 0.00 | 0.00 | 70 | 1004.7 |
| 20260831090047 | 65 | 224 | 1.0 | 3.0 | 0.00 | 0.00 | 0.00 | 72 | 1004.6 |
| 20260831085532 | 64 | 348 | 2.0 | 3.0 | 0.00 | 0.00 | 0.00 | 74 | 1004.7 |
| 20260831085031 | 64 | 165 | 0.0 | 3.0 | 0.00 | 0.00 | 0.00 | 77 | 1004.7 |
| 20260831084607 | 63 | 104 | 1.0 | 3.0 | 0.00 | 0.00 | 0.00 | 85 | 1004.8 |
| 20260831084031 | 62 | 151 | 2.0 | 3.0 | 0.00 | 0.00 | 0.00 | 93 | 1004.8 |
| 20260831083531 | 61 | 160 | 2.0 | 3.0 | 0.00 | 0.00 | 0.00 | 95 | 1004.7 |
| 20260831083054 | 61 | 207 | 1.0 | 3.0 | 0.00 | 0.00 | 0.00 | 96 | 1004.8 |
| 20260831082531 | 60 | 195 | 2.0 | 3.0 | 0.00 | 0.00 | 0.00 | 96 | 1004.7 |
| 20260831082031 | 60 | 0 | 0.0 | 3.0 | 0.00 | 0.00 | 0.00 | 97 | 1004.7 |
| 20260831081547 | 59 | 195 | 0.0 | 3.0 | 0.00 | 0.00 | 0.00 | 97 | 1004.7 |
| 20260831081033 | 58 | 191 | 0.0 | 3.0 | 0.00 | 0.00 | 0.00 | 97 | 1004.8 |
| 20260831080532 | 57 | 0 | 0.0 | 0.0 | 0.00 | 0.00 | 0.00 | 97 | 1004.7 |
| 20260831080055 | 57 | 0 | 0.0 | 0.0 | 0.00 | 0.00 | 0.00 | 97 | 1004.7 |
| 20260831075531 | 57 | 0 | 0.0 | 0.0 | 0.00 | 0.00 | 0.00 | 97 | 1004.8 |
| 20260831075033 | 57 | 0 | 0.0 | 0.0 | 0.00 | 0.00 | 0.00 | 97 | 1004.8 |
| 20260831074546 | 56 | 0 | 0.0 | 0.0 | 0.00 | 0.00 | 0.00 | 97 | 1004.8 |
| 20260831074032 | 56 | 0 | 0.0 | 0.0 | 0.00 | 0.00 | 0.00 | 97 | 1004.8 |
| 20260831073535 | 56 | 0 | 0.0 | 0.0 | 0.00 | 0.00 | 0.00 | 97 | 1004.7 |
| 20260831073054 | 56 | 0 | 0.0 | 0.0 | 0.00 | 0.00 | 0.00 | 97 | 1004.7 |
| 20260831072530 | 55 | 0 | 0.0 | 0.0 | 0.00 | 0.00 | 0.00 | 97 | 1004.6 |
| 20260831072036 | 55 | 0 | 0.0 | 0.0 | 0.00 | 0.00 | 0.00 | 97 | 1004.7 |
| 20260831071549 | 54 | 0 | 0.0 | 0.0 | 0.00 | 0.00 | 0.00 | 96 | 1004.7 |
| 20260831071031 | 54 | 0 | 0.0 | 0.0 | 0.00 | 0.00 | 0.00 | 96 | 1004.6 |
| 20260831070531 | 54 | 0 | 0.0 | 0.0 | 0.00 | 0.00 | 0.00 | 97 | 1004.7 |
| 20260831070049 | 54 | 0 | 0.0 | 0.0 | 0.00 | 0.00 | 0.00 | 97 | 1004.7 |
| 20260831065535 | 54 | 0 | 0.0 | 0.0 | 0.00 | 0.00 | 0.00 | 97 | 1004.8 |
| 20260831065035 | 54 | 0 | 0.0 | 0.0 | 0.00 | 0.00 | 0.00 | 96 | 1004.7 |
| 20260831064553 | 53 | 0 | 0.0 | 0.0 | 0.00 | 0.00 | 0.00 | 97 | 1004.7 |
| 20260831064036 | 53 | 0 | 0.0 | 0.0 | 0.00 | 0.00 | 0.00 | 96 | 1004.6 |
| 20260831063534 | 53 | 0 | 0.0 | 0.0 | 0.00 | 0.00 | 0.00 | 97 | 1004.6 |
| 20260831063050 | 53 | 0 | 0.0 | 0.0 | 0.00 | 0.00 | 0.00 | 96 | 1004.5 |
| 20260831062536 | 52 | 0 | 0.0 | 0.0 | 0.00 | 0.00 | 0.00 | 96 | 1004.4 |
| 20260831062034 | 52 | 0 | 0.0 | 0.0 | 0.00 | 0.00 | 0.00 | 96 | 1004.4 |
| 20260831061548 | 52 | 0 | 0.0 | 0.0 | 0.00 | 0.00 | 0.00 | 96 | 1004.3 |
| 20260831061033 | 52 | 0 | 0.0 | 0.0 | 0.00 | 0.00 | 0.00 | 96 | 1004.4 |
| 20260831060532 | 52 | 0 | 0.0 | 0.0 | 0.00 | 0.00 | 0.00 | 96 | 1004.3 |
| 20260831060048 | 52 | 0 | 0.0 | 0.0 | 0.00 | 0.00 | 0.00 | 96 | 1004.3 |
| 20260831055535 | 51 | 0 | 0.0 | 0.0 | 0.00 | 0.00 | 0.00 | 96 | 1004.2 |
| 20260831055033 | 51 | 0 | 0.0 | 0.0 | 0.00 | 0.00 | 0.00 | 96 | 1004.2 |
| 20260831054551 | 51 | 0 | 0.0 | 0.0 | 0.00 | 0.00 | 0.00 | 96 | 1004.3 |
| 20260831054031 | 51 | 0 | 0.0 | 1.0 | 0.00 | 0.00 | 0.00 | 96 | 1004.1 |
| 20260831053531 | 51 | 0 | 0.0 | 1.0 | 0.00 | 0.00 | 0.00 | 96 | 1004.1 |
| 20260831053048 | 51 | 252 | 0.0 | 1.0 | 0.00 | 0.00 | 0.00 | 96 | 1004.1 |
| 20260831052531 | 51 | 0 | 0.0 | 0.0 | 0.00 | 0.00 | 0.00 | 96 | 1004.1 |
| 20260831052031 | 51 | 0 | 0.0 | 0.0 | 0.00 | 0.00 | 0.00 | 96 | 1004.1 |
| 20260831051555 | 51 | 0 | 0.0 | 0.0 | 0.00 | 0.00 | 0.00 | 96 | 1004.2 |
| 20260831051034 | 51 | 0 | 0.0 | 0.0 | 0.00 | 0.00 | 0.00 | 96 | 1004.2 |
| 20260831050532 | 51 | 0 | 0.0 | 0.0 | 0.00 | 0.00 | 0.00 | 96 | 1004.3 |
| 20260831050052 | 51 | 0 | 0.0 | 0.0 | 0.00 | 0.00 | 0.00 | 96 | 1004.2 |
| 20260831045534 | 50 | 0 | 0.0 | 0.0 | 0.00 | 0.00 | 0.00 | 96 | 1004.1 |
| 20260831045037 | 50 | 0 | 0.0 | 0.0 | 0.00 | 0.00 | 0.00 | 96 | 1004.1 |
| 20260831044602 | 50 | 0 | 0.0 | 0.0 | 0.00 | 0.00 | 0.00 | 96 | 1004.2 |